Tracking 19562 objects as of 23-Mar-2019
HD Live streaming from Space Station
objects crossing your sky now

SIMSAT 1

Track SIMSAT 1 now!
10-day predictions
SIMSAT 1 is classified as:


NORAD ID: 26365
Int'l Code: 2000-026A
Perigee: 511.3 km
Apogee: 527.9 km
Inclination: 86.3 °
Period: 94.9 minutes
Semi major axis: 6890 km
RCS: 1.4243 m2 (large)
Launch date: May 16, 2000
Source: Commonwealth of Independent States (former USSR) (CIS)
Launch site: PLESETSK MISSILE AND SPACE COMPLEX (PKMTR)
aabbcc
Your satellite tracking list
Your tracking list is empty




NASA's NSSDC Master Catalog

Two Line Element Set (TLE):
1 26365U 00026A   19082.19075265  .00000205  00000-0  82135-5 0  9996
2 26365  86.3496 335.5887 0012017 129.2087 231.0224 15.17805449 40944
Source of the keplerian elements: AFSPC